Wind_Speed
7 8 7 7 7 7 7 7 7 7 6 6 6 6 6 5 5 5 6 5 5 5 5 5 4 3 3 3 4 4 4 4 6 5 6 6 5 5 5 5 6 6 5
7 7 7 7 7 6 7 7 7 7 7 6 6 6 6 6 6 6 6 5 5 5 5 5 5 4 4 3 3 3 4 5 6 6 6 5 5 5 4 4 5 6 6
7 7 7 7 7 6 6 7 7 7 7 7 7 7 7 6 6 6 6 6 5 5 5 5 5 5 5 4 4 4 3 4 5 6 5 5 5 4 4 4 5 6 6
7 7 7 7 7 7 6 6 7 7 7 7 7 7 7 7 6 6 6 6 6 6 6 5 5 5 5 4 4 4 3 4 5 5 4 4 5 4 4 4 5 7 6
7 7 6 7 7 7 7 7 7 7 7 7 8 7 7 7 7 7 6 7 7 7 6 6 6 5 5 4 4 4 3 3 4 5 6 6 5 5 4 4 5 7 6
7 7 6 6 6 7 7 7 7 7 7 7 8 8 8 7 7 7 7 7 7 7 7 6 6 6 5 5 4 4 4 4 5 5 6 6 6 6 6 5 5 6 6
7 7 6 6 6 7 7 7 8 8 8 8 8 8 8 8 8 7 7 7 7 7 7 6 6 6 5 5 4 4 4 4 5 6 6 7 6 6 6 6 6 7 7
6 6 6 6 6 6 7 7 8 8 8 8 9 9 9 8 8 8 7 7 7 7 7 7 7 6 6 5 4 4 4 4 4 6 6 6 7 7 8 7 7 7 7
6 6 6 6 6 7 7 7 8 8 8 8 8 9 8 8 8 8 8 7 7 7 7 7 6 6 6 6 5 4 4 4 4 5 6 6 6 7 8 8 7 7 9
6 6 6 6 7 7 7 8 8 8 9 8 8 8 9 9 8 7 8 8 7 8 8 7 7 7 6 6 5 4 4 3 3 4 5 5 6 6 6 6 7 8 8
6 6 6 7 7 7 8 8 8 8 9 9 9 9 9 9 8 8 7 8 8 8 8 8 7 7 6 6 5 5 5 3 1 2 3 5 5 6 6 6 7 7 7
7 6 6 7 7 7 8 8 8 8 8 9 10 9 9 9 9 8 8 8 8 8 8 8 8 7 7 6 5 5 5 4 3 3 4 4 4 5 6 7 7 7 7
7 7 7 7 7 7 8 9 9 9 9 9 10 10 10 10 9 8 8 8 8 9 9 8 8 8 7 7 6 6 6 5 5 5 5 5 6 6 7 8 8 8 8
8 7 7 8 8 8 9 9 9 9 9 9 10 10 10 10 9 9 8 9 9 9 10 9 8 8 8 7 6 6 6 6 5 5 5 7 6 7 7 8 9 10 9
8 8 7 8 8 8 9 9 9 9 9 9 10 10 10 10 9 8 9 9 9 9 10 9 9 9 8 7 7 6 6 6 6 6 6 6 7 8 8 9 9 10 11
9 9 9 9 8 8 9 9 9 10 10 10 10 9 10 10 10 9 9 9 9 10 10 10 9 8 8 8 8 8 7 7 7 7 7 8 9 9 9 10 10 10 11
9 9 9 9 8 9 10 10 10 10 10 10 10 10 10 11 11 11 10 10 10 10 10 10 10 9 8 9 9 9 8 8 8 9 9 10 10 11 11 11 11 11 12
9 10 9 9 9 9 10 10 10 10 11 11 11 11 10 11 12 12 11 11 11 11 11 11 10 10 9 9 9 9 9 10 10 10 11 12 12 12 12 12 12 12 13
10 10 11 10 10 10 10 10 10 10 11 11 11 11 11 12 13 13 12 12 11 11 12 12 12 11 10 9 9 9 10 11 12 12 13 14 14 14 14 14 14 14 14
11 11 11 11 11 11 11 10 10 11 11 11 11 12 12 13 13 14 13 13 12 12 12 12 11 10 10 10 10 10 11 12 13 13 13 14 15 15 14 14 15 15 15
12 12 12 12 12 12 12 12 11 11 12 12 12 12 12 13 14 14 14 13 13 12 13 12 11 11 11 10 10 11 12 12 13 13 13 14 14 15 15 16 16 15 16
14 13 13 13 13 12 13 13 12 12 13 13 13 13 13 13 14 14 14 14 13 12 11 12 12 11 11 11 11 12 12 13 13 13 13 13 14 14 14 15 16 15 15
13 14 14 14 14 14 14 13 13 13 13 13 13 13 13 13 14 14 14 14 14 13 12 12 12 12 12 12 12 13 12 13 14 13 13 14 13 14 14 14 15 15 15
14 15 15 15 15 15 15 14 14 14 14 14 14 14 13 13 15 15 15 15 14 13 13 12 12 12 12 12 13 13 13 13 13 13 14 15 15 14 14 14 15 15 15
16 16 16 16 16 16 16 15 15 15 15 15 14 14 14 15 16 16 15 15 15 14 13 13 12 13 13 13 13 14 13 14 13 14 15 15 15 15 15 15 15 15 16
17 17 17 17 17 17 16 15 15 15 15 15 15 15 16 16 16 16 16 15 14 14 14 13 14 14 13 13 13 13 13 13 13 13 13 14 15 15 15 14 15 16 16
Wind_Direction
22 23 17 16 18 14 8 3 0 357 351 346 343 343 346 346 341 335 333 330 328 325 322 314 304 292 274 270 261 250 243 235 234 227 231 227 209 202 196 199 206 203 203
17 16 13 11 10 9 7 2 357 355 351 347 345 345 346 348 346 343 340 337 331 325 322 315 305 300 293 281 268 258 242 228 228 227 226 224 220 223 208 199 200 204 203
14 13 10 6 6 6 3 359 357 356 352 349 346 346 345 346 345 342 341 341 339 332 328 321 313 309 300 293 284 280 257 232 228 223 221 225 222 219 210 201 195 197 190
12 7 4 3 4 3 359 356 354 354 352 350 345 342 341 341 340 341 343 341 340 336 329 323 319 316 311 301 291 282 272 238 233 223 221 227 231 217 221 212 203 201 197
11 7 2 360 0 1 358 355 354 353 353 350 345 341 340 340 341 338 339 337 335 332 327 325 323 318 315 316 301 287 275 256 246 229 225 229 233 231 231 223 207 203 196
9 8 6 3 359 360 358 354 352 350 349 346 343 341 339 336 336 335 333 332 333 330 327 325 323 322 319 313 305 295 282 257 251 244 230 228 231 233 230 221 197 199 201
5 4 4 3 360 0 359 353 351 349 348 345 342 340 340 338 334 332 334 333 330 329 327 325 324 324 324 321 315 307 291 271 251 245 236 231 232 227 226 213 208 210 206
2 2 1 359 358 359 359 356 352 351 349 345 343 342 339 337 336 332 332 334 331 330 329 327 324 325 323 324 321 312 305 285 260 234 229 221 221 224 225 223 219 213 212
356 357 358 358 360 360 356 356 355 352 349 347 344 343 342 336 333 331 331 333 332 332 327 327 325 323 325 324 321 308 302 299 256 235 224 219 225 226 225 228 229 220 211
353 354 356 355 355 355 354 356 359 356 354 353 350 346 345 337 330 329 329 331 333 337 333 326 325 323 320 319 321 319 313 308 259 234 226 229 232 228 221 221 219 220 200
349 350 354 353 351 351 351 353 355 354 352 352 349 345 342 342 339 334 330 329 332 333 332 331 327 325 322 320 313 314 313 319 323 232 230 240 237 228 218 214 211 212 205
342 342 347 348 348 348 348 348 350 351 349 349 347 344 342 342 339 335 328 326 329 330 328 326 325 327 324 320 318 310 305 303 295 268 257 245 241 235 229 222 220 226 219
336 332 333 334 338 339 342 342 347 348 349 348 346 345 342 340 337 333 331 325 324 325 326 324 321 322 320 314 310 307 304 298 291 275 260 251 245 246 236 226 227 229 229
332 325 323 325 333 336 339 340 343 345 348 349 346 345 343 340 335 325 323 321 321 320 321 322 317 318 311 304 302 300 294 288 287 279 257 251 244 244 243 230 228 232 233
328 321 323 329 332 333 332 336 337 341 348 349 345 343 343 337 332 324 318 318 318 319 316 317 312 311 303 295 291 285 283 285 276 270 262 259 252 248 247 238 232 234 237
326 326 326 323 328 327 328 333 336 337 341 343 341 341 340 338 331 325 319 313 312 315 313 312 308 306 298 291 289 281 274 270 266 266 264 262 261 257 254 251 246 244 245
327 326 326 327 326 326 331 334 333 330 332 335 339 336 334 333 331 328 323 316 310 307 307 307 304 299 292 287 283 279 274 271 267 266 266 262 260 259 256 255 253 249 248
323 326 326 325 322 320 324 327 329 330 332 333 334 331 329 328 328 326 321 316 310 306 304 302 301 294 291 286 283 279 277 275 274 267 263 264 264 260 258 258 254 250 247
320 324 323 318 316 316 318 320 325 327 328 329 330 330 326 324 324 326 323 316 310 304 303 300 297 290 286 287 281 278 276 274 274 273 267 265 263 260 258 256 252 248 247
320 323 321 315 311 312 314 313 317 320 324 325 326 328 328 324 324 325 325 323 315 305 300 302 299 289 285 290 289 282 276 274 274 273 271 269 264 259 256 255 251 247 248
311 315 316 313 309 308 310 309 309 313 317 320 322 322 323 322 322 324 325 322 318 311 304 300 298 293 288 291 293 288 280 277 276 274 272 269 264 262 261 258 254 250 249
300 304 308 309 307 306 304 302 302 305 310 313 316 318 318 320 322 322 324 321 319 316 309 300 295 291 287 286 290 292 285 279 274 272 269 268 266 263 267 264 252 249 249
296 302 302 301 301 302 303 298 298 303 305 308 312 312 313 317 320 322 321 318 315 312 310 306 296 288 287 285 285 287 286 281 276 272 271 268 266 264 264 263 255 253 252
296 296 297 295 296 296 298 297 295 299 301 302 306 307 309 313 317 318 318 314 310 309 308 306 299 292 290 289 285 284 285 282 277 273 271 271 269 268 264 259 257 253 252
294 295 295 292 294 292 292 293 293 296 297 298 302 307 309 312 314 315 316 315 310 306 304 302 297 293 291 291 288 285 283 279 276 273 272 271 270 268 266 259 256 254 253
293 296 295 294 294 291 290 292 294 293 295 297 300 304 307 310 313 314 315 312 307 303 302 300 298 294 291 289 287 284 280 279 280 276 274 272 271 270 266 260 258 254 256
Height
5900 5898 5897 5897 5896 5895 5894 5893 5893 5892 5891 5890 5889 5888 5887 5886 5885 5883 5882 5881 5880 5879 5879 5878 5876 5876 5875 5875 5874 5874 5873 5873 5873 5874 5874 5874 5874 5874 5874 5875 5875 5876 5877
5900 5899 5898 5897 5896 5895 5894 5894 5893 5892 5891 5890 5889 5888 5887 5886 5885 5884 5882 5881 5880 5879 5878 5877 5876 5875 5875 5874 5874 5873 5873 5872 5872 5873 5873 5873 5873 5873 5874 5874 5875 5875 5876
5899 5899 5898 5897 5897 5896 5895 5894 5893 5892 5891 5890 5889 5888 5887 5886 5885 5883 5882 5881 5880 5879 5878 5877 5876 5875 5874 5873 5873 5872 5872 5871 5871 5871 5872 5872 5873 5873 5873 5874 5874 5875 5875
5900 5899 5898 5898 5897 5896 5895 5894 5893 5892 5891 5890 5888 5887 5886 5885 5884 5883 5882 5881 5879 5878 5877 5876 5875 5874 5873 5873 5872 5871 5871 5871 5870 5870 5871 5872 5872 5873 5873 5873 5873 5874 5875
5900 5899 5899 5898 5897 5896 5895 5894 5892 5891 5890 5889 5888 5887 5886 5885 5884 5883 5882 5880 5879 5878 5877 5876 5875 5873 5873 5872 5871 5871 5870 5869 5869 5869 5870 5871 5871 5872 5872 5873 5873 5873 5874
5900 5900 5899 5898 5897 5896 5895 5893 5892 5891 5890 5889 5888 5886 5885 5884 5883 5882 5881 5880 5879 5877 5876 5875 5874 5873 5872 5871 5871 5870 5869 5868 5868 5868 5868 5869 5870 5871 5872 5872 5872 5873 5873
5900 5899 5899 5898 5897 5896 5894 5893 5892 5891 5889 5888 5887 5886 5884 5884 5883 5881 5880 5879 5878 5877 5876 5874 5873 5872 5871 5870 5870 5869 5868 5867 5866 5866 5867 5868 5869 5869 5870 5871 5872 5872 5873
5900 5899 5899 5898 5897 5895 5894 5893 5892 5890 5889 5888 5886 5885 5884 5883 5882 5881 5879 5878 5877 5876 5875 5874 5873 5872 5870 5869 5869 5868 5867 5866 5864 5864 5865 5866 5867 5868 5869 5870 5871 5872 5872
5900 5899 5898 5897 5896 5895 5894 5893 5891 5890 5889 5887 5886 5884 5883 5882 5881 5880 5879 5878 5877 5876 5874 5873 5872 5871 5870 5869 5868 5867 5866 5866 5864 5864 5865 5866 5867 5868 5868 5869 5870 5871 5871
5900 5899 5898 5897 5896 5895 5893 5892 5891 5889 5888 5887 5885 5884 5882 5881 5880 5879 5878 5877 5876 5874 5873 5872 5871 5870 5869 5868 5867 5866 5866 5865 5864 5864 5865 5866 5866 5867 5868 5868 5869 5869 5870
5899 5898 5897 5896 5895 5894 5893 5892 5890 5889 5887 5886 5884 5883 5881 5880 5879 5878 5877 5876 5875 5873 5872 5871 5870 5869 5868 5867 5866 5866 5865 5865 5865 5864 5865 5865 5866 5866 5867 5867 5867 5868 5869
5899 5898 5897 5896 5895 5894 5892 5891 5889 5888 5887 5885 5883 5882 5881 5879 5878 5876 5875 5875 5874 5872 5871 5870 5869 5868 5867 5866 5866 5865 5865 5864 5864 5864 5864 5864 5865 5865 5866 5866 5867 5867 5868
5898 5897 5896 5895 5894 5893 5892 5890 5889 5887 5885 5884 5882 5881 5880 5878 5877 5875 5874 5873 5872 5871 5870 5869 5868 5867 5866 5865 5865 5864 5864 5863 5863 5863 5863 5863 5864 5864 5864 5864 5865 5866 5867
5897 5896 5895 5894 5893 5892 5890 5889 5888 5886 5885 5883 5881 5880 5878 5877 5875 5874 5873 5872 5871 5870 5869 5868 5867 5865 5864 5864 5863 5863 5863 5862 5862 5862 5862 5862 5862 5863 5863 5863 5863 5864 5865
5896 5895 5893 5892 5891 5891 5889 5888 5887 5885 5883 5882 5880 5879 5877 5876 5874 5873 5871 5870 5869 5868 5867 5866 5865 5864 5863 5862 5862 5862 5861 5860 5861 5861 5861 5861 5861 5861 5861 5861 5861 5862 5862
5895 5894 5893 5891 5890 5889 5888 5886 5885 5883 5882 5880 5879 5877 5876 5874 5872 5871 5870 5868 5867 5866 5865 5864 5863 5862 5861 5861 5860 5860 5859 5859 5859 5859 5859 5859 5859 5859 5859 5859 5859 5859 5860
5893 5893 5891 5890 5889 5888 5886 5885 5883 5882 5880 5878 5877 5876 5874 5872 5871 5869 5868 5866 5865 5864 5863 5861 5860 5859 5859 5858 5858 5857 5857 5857 5857 5857 5856 5856 5856 5856 5856 5856 5856 5856 5857
5892 5891 5890 5888 5887 5886 5885 5883 5882 5880 5878 5877 5875 5874 5872 5870 5869 5867 5865 5864 5862 5861 5860 5859 5858 5857 5856 5856 5856 5855 5855 5855 5855 5854 5853 5853 5853 5853 5853 5853 5853 5853 5854
5890 5889 5888 5886 5885 5884 5883 5881 5880 5878 5877 5875 5873 5872 5870 5869 5867 5865 5863 5861 5860 5859 5857 5857 5856 5855 5854 5853 5852 5853 5852 5852 5852 5851 5851 5850 5849 5849 5849 5849 5849 5850 5850
5888 5887 5886 5885 5883 5882 5881 5879 5878 5876 5875 5873 5872 5870 5868 5866 5865 5863 5861 5859 5857 5856 5855 5854 5853 5852 5851 5851 5850 5850 5849 5849 5848 5848 5847 5846 5845 5845 5845 5845 5845 5846 5846
5886 5885 5884 5883 5881 5880 5878 5877 5876 5874 5873 5871 5869 5868 5866 5864 5862 5860 5858 5857 5854 5853 5852 5851 5850 5849 5848 5848 5847 5847 5846 5846 5845 5844 5843 5842 5841 5841 5841 5841 5841 5842 5842
5883 5883 5881 5880 5879 5877 5876 5875 5873 5872 5870 5869 5867 5866 5864 5862 5860 5858 5856 5854 5852 5850 5849 5848 5846 5846 5845 5845 5844 5843 5843 5843 5841 5840 5839 5838 5837 5836 5836 5836 5836 5837 5838
5880 5879 5878 5877 5876 5875 5874 5872 5871 5870 5868 5866 5865 5863 5861 5859 5857 5855 5853 5851 5849 5847 5846 5844 5843 5842 5842 5841 5840 5840 5839 5838 5837 5837 5836 5835 5834 5834 5833 5833 5832 5833 5834
5877 5876 5875 5874 5873 5872 5870 5869 5868 5867 5865 5864 5862 5861 5859 5857 5855 5852 5850 5848 5846 5844 5842 5841 5839 5838 5838 5837 5836 5835 5835 5834 5833 5833 5832 5831 5831 5830 5830 5829 5829 5829 5830
5874 5873 5872 5871 5869 5868 5866 5865 5864 5863 5862 5861 5859 5858 5856 5854 5852 5849 5847 5845 5843 5841 5839 5838 5836 5835 5834 5833 5832 5831 5830 5829 5829 5829 5828 5828 5827 5826 5826 5825 5825 5826 5826
5870 5869 5868 5867 5865 5863 5862 5861 5860 5859 5858 5857 5856 5854 5852 5850 5848 5846 5844 5842 5840 5838 5836 5834 5833 5831 5830 5829 5828 5827 5826 5825 5824 5824 5824 5823 5823 5822 5822 5822 5822 5822 5822